Eugene, OR

10:56 PM PST on November 12, 2019 (GMT -0800)
Mahlon Sweet

Weather History for KEUG - September, 2019

Change the Weather History Date:

Monday, September 23, 2019

  Actual Average Record
Temperature  
Mean Temperature 60 °F 60 °F  
Max Temperature 71 °F 75 °F 96 °F (1943)
Min Temperature 48 °F 46 °F 31 °F (2000)
Degree Days  
Heating Degree Days 5 5  
Month to date heating degree days 47 75  
Since 1 July heating degree days 59 142  
Cooling Degree Days 0 1  
Month to date cooling degree days 43 30  
Year to date cooling degree days 351 238  
Growing Degree Days 10 (Base 50)    
Moisture  
Dew Point 52 °F    
Average Humidity 74    
Maximum Humidity 100    
Minimum Humidity 47    
Precipitation  
Precipitation 0.00 in 0.05 in 0.99 in (1948)
Month to date precipitation 4.25 0.91  
Year to date precipitation 27.46 26.92  
Sea Level Pressure  
Sea Level Pressure 30.23 in    
Wind  
Wind Speed 2 mph (WSW)    
Max Wind Speed 6 mph    
Max Gust Speed 12 mph    
Visibility 8 miles    
Events Fog    
T = Trace of Precipitation, MM = Missing Value Source: NWS Daily Summary

Daily Weather History Graph

Daily Weather History Graph

Search for Another Location

Airport or City:

Astronomy

Sep. 23, 2019 Rise Set
Actual Time 7:01 AM PDT 7:08 PM PDT
Civil Twilight 6:32 AM PDT 7:37 PM PDT
Nautical Twilight 5:58 AM PDT 8:11 PM PDT
Astronomical Twilight 5:23 AM PDT 8:45 PM PDT
Moon 12:35 AM PDT (9/23) 4:20 PM PDT (9/23)
Length of Visible Light 13h 05m
Length of Day
12h 07m
Waning Crescent, 32% of the Moon is Illuminated
Sep 23
Waning Crescent
Sep 28
New
Oct 5
First Quarter
Oct 13
Full
Oct 21
Last Quarter

Hourly Weather History & Observations

Time (PDT) Temp. Dew Point Humidity Pressure Visibility Wind Dir Wind Speed Gust Speed Precip Events Conditions
12:54 AM 57.0 °F 54.0 °F 89% 30.13 in 10.0 mi South 4.6 mph - N/A   Overcast
1:54 AM 57.0 °F 54.0 °F 89% 30.14 in 10.0 mi SSW 4.6 mph - N/A   Overcast
2:54 AM 57.0 °F 54.0 °F 89% 30.14 in 10.0 mi WNW 4.6 mph - N/A   Overcast
3:54 AM 54.0 °F 53.1 °F 97% 30.16 in 10.0 mi Calm Calm - N/A   Overcast
5:54 AM 51.8 °F 50.0 °F 94% 30.19 in 6.0 mi WNW 3.5 mph - N/A Fog Scattered Clouds
6:18 AM 51.8 °F 48.2 °F 88% 30.19 in 5.0 mi Calm Calm - N/A Fog Mostly Cloudy
6:54 AM 50.0 °F 48.2 °F 94% 30.20 in 2.5 mi Calm Calm - N/A Fog Mostly Cloudy
7:34 AM 50.0 °F 48.2 °F 94% 30.23 in 1.0 mi Calm Calm - N/A Fog Mostly Cloudy
7:44 AM 50.0 °F 48.2 °F 94% 30.23 in 0.5 mi Calm Calm - N/A Fog Fog
7:54 AM 50.0 °F 48.2 °F 94% 30.23 in 0.5 mi Calm Calm - N/A Fog Fog
8:09 AM 51.8 °F 48.2 °F 88% 30.23 in 1.0 mi Calm Calm - N/A Fog Mostly Cloudy
8:43 AM 53.6 °F 53.6 °F 100% 30.24 in 3.0 mi Calm Calm - N/A Fog Mostly Cloudy
8:54 AM 55.4 °F 53.6 °F 94% 30.25 in 5.0 mi Calm Calm - N/A Fog Mostly Cloudy
9:54 AM 60.1 °F 54.0 °F 80% 30.26 in 10.0 mi Calm Calm - N/A   Mostly Cloudy
10:54 AM 64.0 °F 54.0 °F 70% 30.27 in 10.0 mi Calm Calm - N/A   Mostly Cloudy
11:54 AM 66.0 °F 53.1 °F 63% 30.27 in 10.0 mi Calm Calm - N/A   Mostly Cloudy
12:54 PM 68.0 °F 52.0 °F 56% 30.26 in 10.0 mi East 3.5 mph - N/A   Scattered Clouds
1:54 PM 69.1 °F 51.1 °F 53% 30.25 in 10.0 mi Calm Calm - N/A   Mostly Cloudy
2:54 PM 69.1 °F 48.9 °F 49% 30.25 in 10.0 mi NNW 3.5 mph - N/A   Mostly Cloudy
3:54 PM 70.0 °F 50.0 °F 49% 30.25 in 10.0 mi North 3.5 mph - N/A   Mostly Cloudy
4:54 PM 70.0 °F 50.0 °F 49% 30.23 in 10.0 mi Calm Calm - N/A   Scattered Clouds
5:54 PM 70.0 °F 50.0 °F 49% 30.24 in 10.0 mi Calm Calm - N/A   Mostly Cloudy
6:54 PM 66.9 °F 54.0 °F 63% 30.25 in 10.0 mi East 3.5 mph - N/A   Mostly Cloudy
7:54 PM 64.0 °F 53.1 °F 67% 30.25 in 10.0 mi Calm Calm - N/A   Mostly Cloudy
8:54 PM 63.0 °F 55.9 °F 78% 30.25 in 10.0 mi WNW 3.5 mph - N/A   Scattered Clouds
9:54 PM 62.1 °F 54.0 °F 75% 30.26 in 10.0 mi Calm Calm - N/A   Mostly Cloudy
10:54 PM 61.0 °F 57.0 °F 87% 30.27 in 10.0 mi South 4.6 mph - N/A   Overcast
11:54 PM 60.1 °F 55.9 °F 86% 30.27 in 10.0 mi South 5.8 mph - N/A   Overcast